FW9018 Weather Reports


Display with metric or nautical units.
time (UTC)temp
F
wind
direction
speed
MPH
gust
MPH
rain 1hr
in
rain 24hr
in
rain mn
in
humidity
%
barometer
mb
20220529080041 52 213 0.0 2.0 0.00 0.02 0.00 86 1013.1
20220529074550 52 221 0.0 2.0 0.00 0.02 0.00 85 1013.2
20220529073040 53 0 0.0 1.0 0.00 0.02 0.00 84 1013.3
20220529071557 53 157 1.0 3.0 0.00 0.02 0.00 83 1013.1
20220529070039 53 0 0.0 1.0 0.00 0.02 0.00 82 1013.2
20220529064549 53 0 0.0 1.0 0.00 0.02 0.02 82 1013.2
20220529063044 53 0 0.0 0.0 0.00 0.02 0.02 81 1013.4
20220529061539 54 0 0.0 0.0 0.00 0.02 0.02 79 1013.2
20220529060048 54 0 0.0 2.0 0.00 0.02 0.02 78 1013.3
20220529054540 54 124 1.0 5.0 0.00 0.02 0.02 78 1013.3
20220529053047 55 0 1.0 4.0 0.00 0.02 0.02 76 1013.4
20220529051548 55 0 0.0 3.0 0.00 0.02 0.02 75 1013.3
20220529050046 56 117 0.0 4.0 0.00 0.02 0.02 73 1013.2
20220529044550 56 0 0.0 0.0 0.00 0.02 0.02 72 1013.1
20220529043101 57 170 0.0 1.0 0.00 0.02 0.02 70 1012.9
20220529041549 57 86 0.0 3.0 0.00 0.02 0.02 69 1012.8
20220529040105 57 0 0.0 2.0 0.00 0.02 0.02 68 1012.9
20220529034546 58 0 0.0 8.0 0.00 0.02 0.02 66 1012.9
20220529033053 58 114 0.0 5.0 0.00 0.02 0.02 66 1012.9
20220529031550 59 137 0.0 2.0 0.00 0.02 0.02 65 1012.8
20220529030048 59 87 0.0 3.0 0.00 0.02 0.02 66 1012.6
20220529024552 59 359 0.0 5.0 0.00 0.02 0.02 65 1012.5
20220529023047 59 0 0.0 2.0 0.00 0.02 0.02 68 1012.2
20220529021556 59 0 0.0 5.0 0.00 0.02 0.02 70 1012.2
20220529020054 60 0 0.0 4.0 0.00 0.02 0.02 71 1012.3
20220529014547 62 223 0.0 3.0 0.00 0.02 0.02 63 1012.1
20220529013043 62 0 1.0 5.0 0.00 0.02 0.02 63 1012.2
20220529011547 62 0 0.0 5.0 0.00 0.02 0.02 64 1012.1
20220529010106 62 258 1.0 4.0 0.00 0.02 0.02 63 1012.2
20220529004546 63 0 1.0 5.0 0.00 0.02 0.02 62 1012.3
20220529003048 63 81 1.0 7.0 0.00 0.02 0.02 59 1012.3
20220529001546 64 245 0.0 9.0 0.00 0.02 0.02 59 1012.4
20220529000045 64 95 1.0 5.0 0.00 0.02 0.02 56 1012.4
20220528234554 64 124 1.0 5.0 0.00 0.02 0.02 56 1012.4
20220528233046 64 142 1.0 5.0 0.00 0.02 0.02 55 1012.7
20220528231554 63 207 1.0 4.0 0.00 0.02 0.02 55 1012.9
20220528230048 63 150 1.0 5.0 0.00 0.02 0.02 54 1013.1
20220528224548 65 290 1.0 5.0 0.00 0.02 0.02 52 1013.1
20220528223055 64 182 1.0 13.0 0.00 0.02 0.02 53 1013.1
20220528221541 65 286 0.0 7.0 0.00 0.02 0.02 53 1013.2
20220528220048 67 245 1.0 6.0 0.00 0.02 0.02 53 1013.6
20220528214542 67 114 3.0 6.0 0.00 0.02 0.02 49 1013.6
20220528213049 65 224 1.0 7.0 0.00 0.02 0.02 54 1013.7
20220528211558 65 234 3.0 9.0 0.00 0.02 0.02 53 1013.8
20220528210039 64 198 2.0 8.0 0.00 0.02 0.02 56 1013.8
20220528204553 64 205 3.0 8.0 0.00 0.02 0.02 54 1013.7
20220528203048 64 256 2.0 6.0 0.00 0.02 0.02 52 1013.6
20220528201544 65 246 2.0 7.0 0.00 0.02 0.02 56 1013.7
20220528200053 64 190 2.0 4.0 0.00 0.02 0.02 55 1014.0
20220528194546 62 0 1.0 6.0 0.00 0.02 0.02 60 1014.0
20220528193049 62 113 2.0 7.0 0.00 0.02 0.02 61 1014.0
20220528191543 62 200 2.0 4.0 0.00 0.02 0.02 56 1014.0
20220528190050 63 228 2.0 5.0 0.00 0.02 0.02 55 1014.0
20220528184556 63 213 3.0 6.0 0.00 0.02 0.02 50 1014.2
20220528183045 64 229 1.0 7.0 0.00 0.02 0.02 52 1014.1
20220528181544 64 216 1.0 5.0 0.00 0.02 0.02 53 1014.0
20220528180051 63 109 2.0 8.0 0.00 0.02 0.02 52 1014.1
20220528174553 64 167 1.0 7.0 0.00 0.02 0.02 47 1014.0
20220528173047 64 248 2.0 8.0 0.00 0.02 0.02 47 1014.0
20220528171547 64 197 1.0 4.0 0.00 0.02 0.02 49 1014.0
20220528170053 63 255 2.0 5.0 0.00 0.02 0.02 50 1014.0
20220528164557 62 99 1.0 6.0 0.00 0.02 0.02 51 1013.8
20220528163042 61 82 2.0 6.0 0.00 0.02 0.02 50 1013.8
20220528161551 60 97 2.0 5.0 0.00 0.02 0.02 58 1013.7
20220528160041 61 226 1.0 4.0 0.00 0.02 0.02 62 1013.7
20220528154542 59 77 1.0 4.0 0.00 0.02 0.02 64 1013.5
20220528153101 58 221 2.0 7.0 0.00 0.02 0.02 69 1013.3
20220528151547 57 49 1.0 4.0 0.00 0.02 0.02 74 1013.4
20220528150044 57 117 0.0 3.0 0.00 0.02 0.02 74 1013.4
20220528144545 56 209 0.0 4.0 0.00 0.02 0.02 75 1013.3
20220528143037 55 0 1.0 5.0 0.00 0.02 0.02 77 1013.2
20220528141557 55 0 0.0 3.0 0.00 0.02 0.02 74 1013.3
20220528140052 54 167 1.0 4.0 0.00 0.02 0.02 73 1013.3
20220528134546 54 120 0.0 6.0 0.00 0.02 0.02 76 1012.9
20220528133050 54 0 1.0 4.0 0.00 0.02 0.02 80 1012.9
20220528131537 54 0 0.0 3.0 0.00 0.02 0.02 79 1012.8
20220528130048 55 0 0.0 1.0 0.00 0.02 0.02 78 1012.7
20220528124546 55 0 0.0 1.0 0.00 0.02 0.02 78 1012.9
20220528123043 55 0 1.0 5.0 0.00 0.02 0.02 77 1012.7
20220528121556 55 184 0.0 2.0 0.00 0.02 0.02 77 1013.0
20220528120045 55 105 1.0 5.0 0.00 0.02 0.02 77 1012.9
20220528114548 55 0 0.0 3.0 0.00 0.02 0.02 77 1013.0
20220528113042 55 110 1.0 4.0 0.00 0.02 0.02 77 1013.1
20220528111550 55 96 1.0 3.0 0.00 0.02 0.02 78 1013.4
20220528110050 55 0 0.0 4.0 0.00 0.02 0.02 78 1013.2
20220528104543 55 123 1.0 7.0 0.00 0.02 0.02 78 1013.0
20220528103100 55 0 1.0 4.0 0.00 0.02 0.02 79 1013.4
20220528101544 55 0 1.0 6.0 0.00 0.02 0.02 80 1013.3
20220528100105 55 0 0.0 3.0 0.00 0.02 0.02 83 1013.3
20220528094547 55 0 0.0 2.0 0.00 0.02 0.02 83 1013.6
20220528093046 55 236 0.0 1.0 0.00 0.02 0.02 83 1013.9
20220528091545 55 214 0.0 4.0 0.01 0.02 0.02 83 1013.7
20220528090044 55 0 0.0 3.0 0.01 0.02 0.02 85 1013.9
20220528084547 55 0 0.0 4.0 0.02 0.02 0.02 86 1013.8
20220528083047 55 0 0.0 1.0 0.02 0.02 0.02 86 1014.0
20220528081543 56 0 0.0 2.0 0.01 0.01 0.01 85 1014.2